TimeEST,TemperatureF,Dew PointF,Humidity,Sea Level PressureIn,VisibilityMPH,Wind Direction,Wind SpeedMPH,Gust SpeedMPH,PrecipitationIn,Events,Conditions,WindDirDegrees,DateUTC
12:53 AM,48.9,35.1,59,30.17,10.0,NNE,9.2,-,N/A,,Overcast,20,2012-12-07 05:53:00
1:53 AM,48.9,36.0,61,30.17,10.0,North,9.2,-,N/A,,Overcast,10,2012-12-07 06:53:00
2:53 AM,48.0,36.0,63,30.15,10.0,NNE,8.1,-,N/A,,Overcast,30,2012-12-07 07:53:00
3:53 AM,48.0,37.0,66,30.14,10.0,NNE,9.2,-,N/A,,Overcast,20,2012-12-07 08:53:00
4:53 AM,48.0,37.0,66,30.14,10.0,NNE,6.9,-,N/A,,Overcast,30,2012-12-07 09:53:00
5:53 AM,48.0,37.9,68,30.14,10.0,NNE,9.2,-,N/A,,Overcast,20,2012-12-07 10:53:00
6:53 AM,48.0,37.9,68,30.14,10.0,NNE,6.9,-,N/A,,Overcast,30,2012-12-07 11:53:00
7:53 AM,48.0,39.0,71,30.14,10.0,NNE,5.8,-,N/A,,Overcast,30,2012-12-07 12:53:00
8:53 AM,48.9,39.9,71,30.14,10.0,NNE,8.1,-,N/A,,Overcast,30,2012-12-07 13:53:00
9:53 AM,48.9,41.0,74,30.14,10.0,ENE,5.8,-,N/A,,Overcast,70,2012-12-07 14:53:00
10:20 AM,51.8,42.8,71,30.14,10.0,ENE,4.6,-,N/A,,Overcast,70,2012-12-07 15:20:00
10:53 AM,53.1,43.0,69,30.12,10.0,ENE,5.8,-,N/A,,Overcast,70,2012-12-07 15:53:00
11:22 AM,55.4,44.6,67,30.11,10.0,Variable,4.6,-,N/A,,Overcast,0,2012-12-07 16:22:00
11:53 AM,57.9,46.0,65,30.08,10.0,ENE,5.8,-,N/A,,Mostly Cloudy,60,2012-12-07 16:53:00
12:53 PM,61.0,48.9,64,30.04,10.0,Variable,4.6,-,N/A,,Mostly Cloudy,0,2012-12-07 17:53:00
1:03 PM,60.8,48.2,63,30.05,10.0,Variable,3.5,-,N/A,,Mostly Cloudy,0,2012-12-07 18:03:00
1:31 PM,62.6,48.2,59,30.03,10.0,Variable,3.5,-,N/A,,Mostly Cloudy,0,2012-12-07 18:31:00
1:53 PM,63.0,51.1,65,30.01,10.0,ENE,4.6,-,N/A,,Overcast,70,2012-12-07 18:53:00
2:53 PM,62.1,52.0,70,30.00,10.0,ENE,3.5,-,N/A,,Overcast,60,2012-12-07 19:53:00
3:53 PM,62.1,52.0,70,30.01,10.0,NNE,3.5,-,N/A,,Overcast,30,2012-12-07 20:53:00
4:53 PM,62.1,52.0,70,30.00,10.0,North,5.8,-,N/A,,Overcast,360,2012-12-07 21:53:00
5:53 PM,60.1,51.1,72,29.99,10.0,North,5.8,-,N/A,,Overcast,10,2012-12-07 22:53:00
6:53 PM,60.1,51.1,72,30.00,10.0,North,6.9,-,N/A,,Overcast,10,2012-12-07 23:53:00
8:25 PM,57.2,51.8,82,30.02,10.0,NNW,5.8,-,N/A,,Overcast,340,2012-12-08 01:25:00
8:53 PM,55.9,52.0,87,30.00,10.0,NNW,5.8,-,N/A,,Overcast,330,2012-12-08 01:53:00
9:53 PM,55.0,52.0,89,30.00,10.0,NNW,3.5,-,N/A,,Overcast,330,2012-12-08 02:53:00
10:53 PM,55.0,52.0,89,30.00,10.0,NW,3.5,-,N/A,,Overcast,310,2012-12-08 03:53:00
11:53 PM,55.0,52.0,89,29.99,10.0,NW,3.5,-,N/A,,Overcast,320,2012-12-08 04:53:00